TimeGMT,TemperatureF,Dew PointF,Humidity,Sea Level PressureIn,VisibilityMPH,Wind Direction,Wind SpeedMPH,Gust SpeedMPH,PrecipitationIn,Events,Conditions,WindDirDegrees,DateUTC
12:20 AM,37.4,33.8,87,29.71,6.2,SW,6.9,-,N/A,,Partly Cloudy,230,2012-11-18 00:20:00
12:50 AM,37.4,33.8,87,29.71,6.2,Variable,3.5,-,N/A,,Scattered Clouds,0,2012-11-18 00:50:00
1:20 AM,39.2,35.6,87,29.71,6.2,Variable,3.5,-,N/A,,Scattered Clouds,0,2012-11-18 01:20:00
1:50 AM,39.2,35.6,87,29.71,6.2,South,6.9,-,N/A,,Scattered Clouds,190,2012-11-18 01:50:00
2:20 AM,37.4,35.6,93,29.71,6.2,SW,6.9,-,N/A,,Mostly Cloudy,220,2012-11-18 02:20:00
2:50 AM,37.4,35.6,93,29.71,6.2,SW,5.8,-,N/A,Rain,Light Rain,230,2012-11-18 02:50:00
3:20 AM,39.2,37.4,93,29.74,-9999.0,WNW,4.6,-,N/A,Rain,Rain,290,2012-11-18 03:20:00
3:50 AM,37.4,33.8,87,29.71,6.2,WSW,6.9,-,N/A,,Partly Cloudy,240,2012-11-18 03:50:00
4:20 AM,37.4,35.6,93,29.74,6.2,Variable,2.3,-,N/A,,Mostly Cloudy,0,2012-11-18 04:20:00
4:50 AM,37.4,35.6,93,29.74,6.2,SW,5.8,-,N/A,,Light Drizzle,230,2012-11-18 04:50:00
5:20 AM,37.4,33.8,87,29.74,6.2,SSW,4.6,-,N/A,,Partly Cloudy,210,2012-11-18 05:20:00
5:50 AM,37.4,33.8,87,29.74,6.2,SSW,5.8,-,N/A,,Partly Cloudy,210,2012-11-18 05:50:00
6:20 AM,35.6,33.8,93,29.77,6.2,SW,6.9,-,N/A,,Partly Cloudy,220,2012-11-18 06:20:00
6:50 AM,37.4,35.6,93,29.77,6.2,WSW,8.1,-,N/A,,Light Drizzle,250,2012-11-18 06:50:00
7:20 AM,35.6,33.8,93,29.77,6.2,SW,9.2,-,N/A,,Scattered Clouds,230,2012-11-18 07:20:00
7:50 AM,35.6,33.8,93,29.77,6.2,SW,6.9,-,N/A,,Partly Cloudy,230,2012-11-18 07:50:00
8:20 AM,37.4,33.8,87,29.77,6.2,WSW,8.1,-,N/A,,Partly Cloudy,240,2012-11-18 08:20:00
8:50 AM,37.4,35.6,93,29.80,6.2,West,6.9,-,N/A,,Partly Cloudy,260,2012-11-18 08:50:00
9:20 AM,39.2,35.6,87,29.80,6.2,WSW,11.5,-,N/A,,Scattered Clouds,240,2012-11-18 09:20:00
9:50 AM,41.0,37.4,87,29.80,6.2,WSW,6.9,-,N/A,,Scattered Clouds,250,2012-11-18 09:50:00
10:20 AM,42.8,39.2,87,29.80,6.2,SSW,6.9,-,N/A,,Scattered Clouds,210,2012-11-18 10:20:00
10:50 AM,44.6,39.2,81,29.80,6.2,South,6.9,-,N/A,,Scattered Clouds,190,2012-11-18 10:50:00
11:20 AM,44.6,41.0,87,29.80,6.2,SSW,8.1,-,N/A,,Scattered Clouds,200,2012-11-18 11:20:00
11:50 AM,46.4,41.0,81,29.80,6.2,SW,10.4,-,N/A,,Scattered Clouds,230,2012-11-18 11:50:00
12:20 PM,46.4,39.2,76,29.80,6.2,SW,13.8,-,N/A,,Scattered Clouds,220,2012-11-18 12:20:00
12:50 PM,44.6,39.2,81,29.80,6.2,SW,10.4,-,N/A,,Scattered Clouds,220,2012-11-18 12:50:00
1:20 PM,42.8,39.2,87,29.80,6.2,SSW,9.2,-,N/A,,Scattered Clouds,210,2012-11-18 13:20:00
1:50 PM,44.6,39.2,81,29.80,6.2,SW,11.5,-,N/A,,Scattered Clouds,220,2012-11-18 13:50:00
2:20 PM,44.6,37.4,76,29.80,6.2,SSW,9.2,-,N/A,,Scattered Clouds,210,2012-11-18 14:20:00
2:50 PM,42.8,35.6,76,29.80,6.2,SSW,9.2,-,N/A,,Scattered Clouds,210,2012-11-18 14:50:00
3:20 PM,42.8,37.4,81,29.80,6.2,South,6.9,-,N/A,,Scattered Clouds,180,2012-11-18 15:20:00
3:50 PM,42.8,37.4,81,29.80,6.2,South,9.2,-,N/A,,Mostly Cloudy,180,2012-11-18 15:50:00
4:20 PM,41.0,35.6,81,29.77,6.2,South,6.9,-,N/A,,Scattered Clouds,180,2012-11-18 16:20:00
4:50 PM,41.0,35.6,81,29.77,6.2,South,6.9,-,N/A,,Scattered Clouds,170,2012-11-18 16:50:00
5:20 PM,41.0,37.4,87,29.77,6.2,South,8.1,-,N/A,,Scattered Clouds,180,2012-11-18 17:20:00
5:50 PM,42.8,37.4,81,29.77,6.2,South,9.2,-,N/A,,Scattered Clouds,180,2012-11-18 17:50:00
6:20 PM,41.0,35.6,81,29.77,6.2,Variable,3.5,-,N/A,,Scattered Clouds,0,2012-11-18 18:20:00
6:50 PM,41.0,35.6,81,29.77,6.2,ESE,4.6,-,N/A,,Scattered Clouds,110,2012-11-18 18:50:00
7:20 PM,41.0,35.6,81,29.74,6.2,ENE,6.9,-,N/A,,Scattered Clouds,60,2012-11-18 19:20:00
7:50 PM,41.0,35.6,81,29.74,6.2,ENE,5.8,-,N/A,Rain,Light Rain,60,2012-11-18 19:50:00
8:20 PM,41.0,37.4,87,29.71,6.2,East,5.8,-,N/A,Rain,Light Rain,80,2012-11-18 20:20:00
8:50 PM,41.0,37.4,87,29.71,6.2,East,5.8,-,N/A,Rain,Light Rain,90,2012-11-18 20:50:00
9:20 PM,41.0,39.2,93,29.68,6.2,East,9.2,-,N/A,Rain,Light Rain,90,2012-11-18 21:20:00
9:50 PM,41.0,39.2,93,29.65,6.2,East,9.2,-,N/A,Rain,Light Rain,90,2012-11-18 21:50:00
10:20 PM,41.0,39.2,93,29.65,5.6,East,10.4,-,N/A,Rain,Light Rain,90,2012-11-18 22:20:00
10:50 PM,41.0,39.2,93,29.62,5.6,East,8.1,-,N/A,Rain,Light Rain,100,2012-11-18 22:50:00
11:20 PM,42.8,41.0,93,29.62,5.0,ESE,6.9,-,N/A,,Drizzle,120,2012-11-18 23:20:00
11:50 PM,42.8,41.0,93,29.59,5.6,SE,8.1,-,N/A,Rain,Light Rain,140,2012-11-18 23:50:00